Location: Kopernik Observatory
(42.0014°N, 76.0372°W)
Time: 04:51:01
(UTC-04:00)

Daily predictions for brighter satellites

Satellite Brightness Start Highest point End
(mag) Time Altitude Azimuth Time Altitude Azimuth Time Altitude Azimuth
Cosmos 1400 Rocket 4.4 00:05:57 25° ENE 00:05:57 25° ENE 00:08:48 10° NE
Cosmos 304 Rocket 3.7 00:06:17 10° NNW 00:11:04 71° WSW 00:11:32 65° SSW
Cosmos 1455 3.0 00:09:22 10° NNW 00:12:57 43° W 00:12:57 43° W
Cosmos 1666 Rocket 3.4 00:14:40 81° SSE 00:14:51 85° E 00:19:20 10° N
Cosmos 1844 Rocket 3.4 00:16:14 35° ESE 00:16:19 35° ESE 00:21:18 10° NE
Cosmos 1943 4.1 00:14:26 10° NW 00:19:33 36° WSW 00:20:39 33° SW
Cosmos 1862 Rocket 4.5 00:18:39 10° N 00:22:42 36° ENE 00:22:52 36° E
Cosmos 1933 Rocket 4.4 00:24:43 37° E 00:24:43 37° E 00:28:28 10° NNE
Tsikada Rocket 4.1 00:23:22 49° SSE 00:25:01 69° E 00:31:21 10° NNE
Cosmos 1805 Rocket 4.2 00:26:04 44° W 00:26:35 46° WNW 00:30:47 10° N
CZ-2C R/B 3.2 00:28:02 56° S 00:29:21 88° WSW 00:35:08 10° NNW
Lacrosse 5 3.4 00:26:16 10° WNW 00:29:38 23° WSW 00:29:38 23° WSW
IKONOS-2 4.5 00:33:36 79° ENE 00:33:36 79° ENE 00:37:50 10° N
Cosmos 1633 Rocket 3.0 00:33:49 73° W 00:33:52 73° W 00:38:13 10° N
Cosmos 1892 4.4 00:41:17 24° ENE 00:41:17 24° ENE 00:43:51 10° NNE
Cosmos 2242 Rocket 3.6 00:42:39 10° N 00:47:15 79° W 00:47:18 79° WSW
Cosmos 1816 Rocket 4.4 00:50:25 53° S 00:52:03 88° W 00:58:23 10° N
Cosmos 968 Rocket 3.4 00:53:51 66° SW 00:54:36 82° WNW 00:59:54 10° NNE
CZ-2C R/B 2.9 00:49:23 10° N 00:54:38 59° WNW 00:55:49 47° WSW
Cosmos 1470 Rocket 3.6 01:01:55 72° WNW 01:01:55 72° WNW 01:06:18 10° N
Cosmos 2278 Rocket 3.0 01:03:25 34° ESE 01:03:45 34° ESE 01:08:48 10° NE
Meteor 1-26 Rocket 4.2 00:58:17 10° N 01:03:48 70° ENE 01:04:49 56° SE
BREEZE-M DEB 3.7 00:54:41 10° WSW 01:04:50 69° NNW 01:07:57 10° NE
H-2A R/B 4.1 01:03:24 10° NE 01:07:06 26° E 01:07:06 26° E
Cosmos 1844 3.6 01:07:55 63° SSE 01:08:38 72° ESE 01:14:14 10° NNE
Cosmos 2084 Rocket 3.8 01:08:26 10° NW 01:11:30 55° NNW 01:11:30 55° NNW
Cosmos 1538 Rocket 3.9 01:07:12 10° NNW 01:12:36 87° WSW 01:13:18 69° S
SL-24 R/B - RUBIN 2 3.8 01:09:30 10° NNW 01:15:03 86° NE 01:15:38 70° SE
Cosmos 1933 4.1 01:12:46 10° NNW 01:16:12 46° WNW 01:16:12 46° WNW
Cosmos 1869 Rocket 4.4 01:17:09 39° E 01:17:09 39° E 01:21:06 10° NNE
COSMOS 2406 3.1 01:12:41 10° NNW 01:18:20 68° WSW 01:19:01 61° SSW
Okean 1-7 3.9 01:16:54 10° N 01:20:58 38° ENE 01:21:17 38° E
Cosmos 2279 Rocket 4.3 01:16:11 10° N 01:22:23 61° E 01:24:20 42° SE
ALOS 2 4.0 01:23:03 27° W 01:23:03 27° W 01:26:26 10° NW
CZ-4C R/B 2.4 01:22:54 43° WSW 01:24:33 63° NW 01:30:31 10° NNE
Cosmos 1461 4.3 01:27:08 27° E 01:27:08 27° E 01:29:31 10° NE
Cosmos 1689 Rocket 3.9 01:27:08 34° N 01:27:08 34° N 01:29:04 10° N
Meteor 2-10 Rocket 3.9 01:21:17 10° NNW 01:26:26 51° W 01:27:04 49° WSW
Cosmos 292 Rocket 4.1 01:26:24 10° NNW 01:30:47 49° W 01:30:47 49° W
CZ-4B R/B 2.4 01:31:59 47° N 01:31:59 47° N 01:34:36 10° NNW
Cosmos 1315 Rocket 3.4 01:34:45 50° NW 01:34:45 50° NW 01:38:11 10° N
Landsat 5 3.4 01:36:20 82° NW 01:36:20 82° NW 01:40:23 10° NNW
Cosmos 2082 Rocket 3.8 01:31:46 10° N 01:36:43 30° NE 01:41:12 12° ESE
Meteor 2-3 Rocket 3.7 01:36:55 57° SSW 01:38:08 78° W 01:43:58 10° N
ATLAS 3B R/B 4.1 01:41:11 23° SE 01:43:09 26° ESE 01:48:55 10° ENE
PSLV R/B 4.2 01:40:09 10° NNE 01:44:22 45° E 01:44:32 44° ESE
Cosmos 1825 3.2 01:46:16 38° E 01:46:16 38° E 01:49:30 10° NNE
Cosmos 2112 Rocket 4.3 01:46:10 10° NNW 01:51:25 63° ENE 01:53:06 41° SE
Cosmos 773 Rocket 4.2 01:47:43 10° NNW 01:52:48 51° WSW 01:53:04 50° WSW
Cosmos 44 4.4 01:53:36 28° ESE 01:53:36 28° ESE 01:57:17 10° NE
Cosmos 1782 2.9 01:50:06 10° N 01:54:05 68° ENE 01:54:05 68° ENE
Cosmos 1634 Rocket 4.5 01:48:57 10° NNW 01:54:46 45° W 01:56:07 39° WSW
Meteor 2-6 Rocket 4.4 01:51:49 10° N 01:57:21 68° E 01:59:08 43° SE
Cosmos 1408 3.1 01:59:38 54° NE 01:59:38 54° NE 02:02:42 10° NNE
Cosmos 1844 Rocket 3.8 01:57:52 25° W 02:00:09 34° WNW 02:05:14 10° N
Timation 1 Rocket 4.3 01:59:59 53° S 02:01:28 79° ESE 02:07:27 10° NNE
Cosmos 44 Rocket 3.8 02:02:28 42° SE 02:02:42 43° ESE 02:07:13 10° NE
Cosmos 1680 Rocket 3.4 01:59:00 10° NNW 02:04:19 87° WSW 02:05:27 57° SSE
Cosmos 1346 Rocket 3.6 02:06:29 10° NNW 02:09:34 40° WNW 02:09:34 40° WNW
Aureole 1 Rocket 4.4 02:04:02 10° NNW 02:10:51 86° ENE 02:15:28 29° SSE
Helios 1A Rocket 3.5 02:06:53 10° NNE 02:10:52 46° E 02:11:08 46° ESE
Resurs 1-4 Rocket 4.3 02:12:37 10° NE 02:16:00 17° E 02:18:59 11° SE
Cosmos 2221 Rocket 4.1 02:14:55 10° NNW 02:19:08 44° W 02:19:08 44° W
Cosmos 1092 Rocket 4.3 02:16:54 36° SSE 02:19:27 62° E 02:25:38 10° NNE
Cosmos 1898 Rocket 3.7 02:22:53 47° SSE 02:24:09 62° ESE 02:29:21 10° NNE
Cosmos 1607 3.9 02:24:03 45° SSW 02:26:03 74° ESE 02:32:19 10° NE
SL-27 R/B 4.5 02:24:22 10° NW 02:25:39 18° WNW 02:25:39 18° WNW
SeaSat 1 2.7 02:26:04 27° SE 02:28:42 68° ENE 02:33:37 10° NNW
CZ-2D R/B 3.9 02:27:09 10° NE 02:31:25 23° E 02:34:35 14° SE
USA 238 DEB 4.5 02:31:18 28° SSE 02:34:06 40° ESE 02:40:31 10° NE
Cosmos 1606 3.5 02:32:44 10° NNW 02:36:00 38° WNW 02:36:00 38° WNW
ARIANE 5 R/B 4.3 02:33:51 10° NE 02:37:42 22° E 02:40:37 14° SE
SL-08 R/B 3.8 02:39:19 27° SE 02:41:50 60° ENE 02:46:34 10° N
H-2A R/B 3.8 02:38:46 10° N 02:42:43 30° WNW 02:43:43 27° W
Cosmos 1340 2.6 02:39:00 10° N 02:42:48 82° E 02:43:13 68° SSE
Cosmos 1932 4.5 02:40:33 38° SW 02:43:17 87° NW 02:49:54 10° NNE
CBERS-1 4.3 02:40:14 10° NNE 02:45:20 60° E 02:47:21 35° SSE
Genesis I 4.4 02:46:04 29° WNW 02:46:59 33° NW 02:50:35 10° NNE
Cosmos 2278 Rocket 3.2 02:45:15 24° WSW 02:47:46 35° WNW 02:52:57 10° N
Cosmos 858 Rocket 4.4 02:51:18 43° SSW 02:53:03 84° WNW 02:58:15 10° NNE
Nadezhda 4 Rocket 4.3 02:50:38 34° SW 02:53:09 53° WNW 02:59:20 10° N
IRS-P3 4.1 02:49:27 10° NNE 02:54:50 86° ESE 02:57:02 37° SSW
Cosmos 1833 Rocket 2.6 02:50:31 10° NNW 02:56:09 70° WSW 02:58:54 31° S
CZ-3B DEB 4.2 02:42:59 10° NW 02:56:19 82° NE 03:07:44 10° SE
NPP 3.6 02:51:36 10° NNE 02:57:01 84° ESE 02:59:20 36° S
Cosmos 2369 Rocket 4.0 02:54:36 12° SE 02:58:13 22° E 03:02:24 10° NE
Cosmos 1655 Rocket 4.4 02:55:49 23° SSE 02:59:45 59° E 03:05:53 10° NNE
GP-B 3.0 02:58:30 10° N 03:02:58 85° W 03:04:28 42° S
COSMOS 2487 2.4 02:59:47 10° NNW 03:03:18 63° WSW 03:03:26 63° WSW
SL-16 R/B 2.8 03:01:34 11° SSE 03:07:28 68° ENE 03:13:40 10° N
Cosmos 2297 4.1 03:04:57 31° WSW 03:07:30 53° WNW 03:13:04 10° NNE
UNK 4.3 03:04:25 16° SSE 03:07:59 57° ENE 03:12:35 10° N
Cosmos 2298 Rocket 4.1 03:07:34 35° SW 03:09:45 65° WNW 03:15:03 10° NNE
Cosmos 1437 4.4 03:08:01 10° N 03:10:59 32° ENE 03:12:57 17° SE
USA 267 4.1 03:06:22 10° ENE 03:12:19 36° SE 03:15:50 22° S
Cosmos 1975 Rocket 3.9 03:10:57 10° N 03:15:08 47° ENE 03:18:42 14° SSE
Cosmos 1812 3.6 03:12:04 10° N 03:15:48 45° ENE 03:18:29 17° SSE
Exosat Rocket 4.2 03:13:08 10° NNW 03:18:37 56° WSW 03:24:04 18° S
Cosmos 1733 Rocket 4.1 03:19:01 28° WSW 03:20:11 32° WNW 03:24:09 10° NNW
ADEOS Rocket 3.5 03:12:32 10° NNE 03:20:15 88° WNW 03:25:04 24° SSW
Cosmos 2082 Rocket 2.6 03:15:39 10° NW 03:20:52 41° WSW 03:22:59 29° SSW
Cosmos 2150 Rocket 4.3 03:19:04 30° SW 03:21:39 59° WNW 03:27:03 10° NNE
Cosmos 1825 4.4 03:21:09 13° W 03:21:42 14° WNW 03:23:44 10° NW
Meteor 1-14 Rocket 4.4 03:20:21 23° S 03:24:09 79° E 03:30:09 10° NNE
ATLAS 3B R/B 3.0 03:28:26 23° SW 03:33:21 71° NW 03:40:32 10° NNE
Cosmos 44 4.2 03:32:00 20° WSW 03:34:30 35° NW 03:38:37 10° NNE
S3M 3.9 03:33:25 10° N 03:39:39 90° E 03:45:41 11° S
Sich 1 Rocket 4.0 03:38:43 27° SW 03:40:51 49° WNW 03:45:19 10° N
ADEOS 3.6 03:39:11 10° NNE 03:44:26 87° ESE 03:48:14 19° SSW
MOZ.5/SAFIR/RUBIN 5/SL-8 4.4 03:40:21 10° SSE 03:45:00 59° ENE 03:49:40 10° N
Okean 3 4.1 03:42:03 10° NNW 03:45:58 37° W 03:47:40 26° SW
Timation 2 Rocket 4.4 03:45:29 10° NW 03:51:08 41° WSW 03:56:12 13° S
Resurs 1-4 Rocket 2.3 03:50:59 10° N 03:56:15 62° WNW 04:00:04 19° SSW
Okean 1 3.4 03:53:18 10° N 03:57:23 82° E 04:01:26 10° S
Cosmos 1633 2.9 03:54:43 16° S 03:57:33 62° E 04:01:10 10° NNE
BREEZE M DEB (TANK) 4.3 04:00:16 10° WNW 04:02:05 19° N 04:03:53 10° NE
BREEZE-M DEB (TANK) 3.3 03:56:48 17° SW 04:02:58 53° SSE 04:06:05 10° ENE
MOS 1 Rocket 3.6 03:57:49 10° NNE 04:03:15 84° ESE 04:08:01 12° S
BREEZE M DEB (TANK) 3.0 04:04:03 17° SSE 04:04:46 20° SE 04:06:37 10° E
BREEZE-M DEB (TANK) 2.1 04:04:04 23° WSW 04:05:36 89° WNW 04:11:40 10° ENE
SeaSat 1 4.0 04:05:50 15° WSW 04:06:37 16° WSW 04:09:36 10° WNW
BREEZE-M R/B 3.3 04:01:23 10° WNW 04:07:40 71° NNE 04:10:54 10° ESE
Okean 2 Rocket 3.3 04:05:26 18° SSW 04:08:35 56° W 04:12:56 10° N
GRACE-1 4.0 04:07:29 13° S 04:09:45 67° E 04:12:26 10° N
GRACE-2 4.1 04:07:53 13° S 04:10:11 67° E 04:12:52 10° N
CZ-2D R/B 2.6 04:06:33 10° N 04:11:40 47° WNW 04:15:55 15° SW
Cosmos 1125 Rocket 3.6 04:11:41 15° SSW 04:16:01 68° WNW 04:21:19 10° NNE
ARIANE 5 R/B 3.0 04:12:18 10° N 04:17:01 43° WNW 04:20:57 14° SW
Cosmos 1441 Rocket 3.6 04:13:30 10° N 04:17:30 70° E 04:21:29 10° SSE
CZ-2D R/B 3.6 04:16:25 10° N 04:20:49 76° WNW 04:25:07 11° SSW
USA 238 DEB 4.4 04:18:44 12° WSW 04:24:57 47° NW 04:31:43 10° NNE
USA 238 4.4 04:18:50 12° WSW 04:25:03 47° NW 04:31:49 10° NNE
UNKNOWN OBJECT B 3.0 04:23:18 10° N 04:26:56 49° WNW 04:30:08 12° SSW
IRS-1D 4.5 04:22:30 10° N 04:27:00 32° WNW 04:31:04 12° SW
Cosmos 1300 Rocket 4.1 04:23:28 10° S 04:27:49 59° E 04:32:12 10° NNE
Okean O Rocket 2.8 04:34:24 10° NNE 04:38:34 41° E 04:42:43 10° S
Cosmos 1943 Rocket 2.3 04:33:38 10° SSW 04:39:17 83° ESE 04:44:56 10° NNE
Cosmos 2369 Rocket 2.5 04:36:24 10° SW 04:41:47 54° WNW 04:47:20 10° NNE
PSLV R/B 4.1 04:41:01 11° SW 04:43:54 35° SSE 04:46:58 10° E
Cosmos 1269 Rocket 4.4 04:39:51 10° NNW 04:44:52 44° WSW 04:49:51 10° S
Meteor 1-19 Rocket 4.2 04:39:36 10° NNW 04:45:11 71° W 04:50:50 10° S
Cosmos 405 Rocket 3.7 04:42:28 10° NNW 04:45:56 29° W 04:49:19 10° SSW
CZ-3B DEB 4.3 04:37:56 10° NW 04:49:41 42° WSW 04:59:11 10° S
COSMOS 2455 2.9 04:44:58 10° SSW 04:51:00 86° WNW 04:57:04 10° NNE
SL-16 R/B 3.9 04:47:17 10° SW 04:51:35 19° W 04:55:56 10° NW
ADEOS II 2.4 04:46:45 10° NNE 04:52:02 74° ESE 04:57:16 10° S
USA 267 3.5 04:49:04 10° NE 04:55:32 67° NW 05:02:01 10° WSW
Cosmos 2151 Rocket 4.4 04:52:32 10° SW 04:56:42 36° WNW 05:00:54 10° N
deb Kosmos-1763 4.3 04:54:07 10° NNW 04:57:48 52° WSW 05:01:27 10° S
Cosmos 1656 Rocket 4.3 04:55:55 10° S 05:01:10 55° ESE 05:06:28 10° NNE
